Lid_Strength_Index
10 10 10 10 9 8 8 7 6 6 5 5 5 5 5 6 6 8 9 8 8 7 6 5 7 6 6 4 6 7 7 8 13 17 16 16 16 16 15 14 12 12 11
11 11 11 10 9 8 8 8 7 6 5 6 6 5 5 4 4 5 7 8 8 7 7 7 5 5 6 5 6 6 7 9 13 19 17 16 16 16 16 16 15 14 14
12 11 11 10 10 10 10 9 9 8 8 7 6 6 6 6 5 5 4 6 7 8 7 7 6 6 6 6 5 5 7 12 14 18 18 16 16 16 17 16 16 15 14
12 12 11 11 11 11 11 11 10 10 10 9 9 8 7 7 6 6 6 6 7 8 8 7 7 6 7 5 5 6 12 14 16 17 18 18 17 17 17 18 18 17 17
13 12 12 12 12 12 12 12 12 11 10 10 10 10 10 8 8 7 7 7 7 7 8 7 8 7 9 7 6 10 12 15 17 18 19 19 20 19 19 18 19 19 18
13 13 12 12 13 13 13 13 12 12 12 12 12 12 11 10 9 8 8 9 8 8 10 11 12 12 10 10 9 11 12 16 17 18 19 20 20 19 19 19 20 20 21
13 13 13 13 13 13 13 13 14 14 13 14 13 13 13 12 9 9 9 11 12 13 13 12 15 14 13 15 14 13 13 13 14 16 19 19 20 20 19 20 20 20 21
13 13 13 13 13 13 14 14 14 14 15 15 14 14 13 13 11 11 12 14 14 14 14 16 16 16 16 17 18 18 18 18 17 17 17 18 19 18 19 20 21 21 21
14 13 13 13 13 13 14 14 14 15 15 15 14 14 14 14 12 12 14 16 17 17 16 16 16 17 16 16 18 19 19 19 16 16 16 16 16 17 19 20 21 22 23
14 14 13 13 13 14 14 14 14 15 15 15 14 14 14 15 13 13 15 17 18 18 18 18 17 18 17 17 21 22 24 23 22 22 21 19 17 17 17 19 20 22 24
16 15 14 13 13 14 15 14 14 15 15 15 15 15 15 15 15 14 15 17 18 19 19 19 18 17 18 19 19 22 22 21 21 23 23 23 23 23 23 23 21 21 23
17 16 16 14 13 13 15 15 14 14 16 16 15 16 16 15 13 13 13 14 16 19 20 20 19 18 18 19 20 19 20 22 23 24 24 25 25 25 24 24 23 22 22
19 18 16 13 12 13 13 14 14 14 15 16 16 17 17 17 16 15 14 15 15 18 18 18 18 19 19 20 20 21 23 23 24 25 25 25 25 24 24 24 24 24 23
21 19 18 14 13 12 12 13 13 14 15 16 16 17 17 17 17 17 18 18 18 18 18 19 19 20 20 21 22 22 22 22 23 24 25 25 24 24 25 24 24 24 25
20 21 20 19 13 13 12 12 13 13 13 15 15 15 16 17 16 16 17 19 20 19 20 21 22 22 23 23 23 23 23 23 24 24 24 24 24 23 23 22 23 24 26
15 18 19 18 15 14 14 13 11 11 11 12 12 14 14 14 14 15 15 15 16 17 20 22 22 22 23 23 24 24 24 24 24 24 23 23 23 24 24 24 24 25 26
17 16 17 19 19 15 14 14 15 13 11 11 12 12 13 14 14 15 15 15 16 18 21 22 23 23 24 24 24 24 25 24 23 23 24 24 24 25 25 25 25 25 26
14 14 16 18 21 21 16 15 15 15 15 15 12 12 12 12 13 14 15 17 21 21 22 23 23 23 23 24 24 24 24 24 24 24 25 25 25 25 25 26 26 27 28
17 15 17 17 23 22 22 16 17 15 14 15 14 13 13 12 13 14 16 23 24 24 24 24 24 24 24 24 24 24 25 25 25 25 26 25 26 26 27 27 28 28 30
13 16 19 21 24 25 24 20 23 17 15 15 15 14 15 17 22 25 25 26 25 25 26 24 26 25 25 25 25 25 26 26 26 26 26 26 27 26 28 29 29 30 32
13 17 21 22 23 23 22 21 21 21 18 16 17 22 16 23 25 26 26 27 25 26 25 24 25 25 26 26 26 26 26 26 26 26 27 27 28 30 29 29 31 32 33
15 18 21 20 21 23 23 23 23 22 23 22 22 24 12 20 24 24 25 25 25 25 25 25 25 26 25 25 26 26 27 27 28 28 28 29 29 29 31 31 32 34 35
15 17 19 23 20 23 23 23 23 22 22 22 22 21 22 22 24 24 23 26 28 29 29 27 26 27 28 28 27 25 26 26 26 26 27 28 29 30 30 32 33 36 37
16 17 18 19 21 21 21 21 21 22 21 22 24 22 22 23 21 20 21 23 22 20 24 27 26 25 25 27 28 29 29 27 26 27 27 28 30 31 32 33 33 37 36
17 17 18 19 19 20 21 22 21 21 21 21 21 21 22 23 23 23 23 21 22 22 21 26 28 26 26 27 28 29 27 25 27 27 28 29 30 32 31 31 36 39 40
15 15 17 18 19 19 19 20 20 20 20 20 20 20 20 20 21 22 22 22 22 24 21 24 27 27 27 27 28 27 26 25 27 28 28 28 29 32 31 32 35 36 39